Regional Weather Roundup
Issued by NWS

Home | Current Version | Previous Version | Graphics & Text | Print | Product List | Glossary On
Versions: 1 2 3 4 5 6 7 8 9 10 11 12 13 14 15 16 17 18 19 20 21 22 23 24 25 26 27 28 29 30 31 32 33 34 35 36 37 38 39 40 41 42 43 44 45 46 47 48 49 50
084
ASUS43 KMKX 290800
RWRWI

WISCONSIN REGIONAL WEATHER ROUNDUP
NATIONAL WEATHER SERVICE MILWAUKEE/SULLIVAN WI
300 AM CDT FRI APR 29 2016

NOTE: "FAIR" INDICATES FEW OR NO CLOUDS BELOW 12,000 FEET WITH NO
SIGNIFICANT WEATHER AND/OR OBSTRUCTIONS TO VISIBILITY.

WIZ001-002-006>008-014>016-023>028-290900-
NORTHWEST WISCONSIN

CITY           SKY/WX    TMP DP  RH WIND       PRES   REMARKS
SUPERIOR ARPT  CLOUDY    28  28  99 CALM      30.16S
ASHLAND        CLOUDY    28  26  92 W3        30.14S
HAYWARD        PTCLDY    30  25  81 CALM      30.12S
SIREN          CLOUDY    31  27  85 CALM      30.13S
CUMBERLAND     CLOUDY    34  34 100 W7        30.12R WCI  28
RICE LAKE      CLOUDY    38  35  89 S5        30.14R WCI  35
CHETEK         CLOUDY    39  37  91 CALM      30.13R
LADYSMITH      CLOUDY    40  36  84 S6        30.13S
EAU CLAIRE     CLOUDY    39  38  96 CALM      30.12S
MENOMONIE      CLOUDY    39  39  99 W3        30.14R
NEW RICHMOND   CLOUDY    38  38 100 W6        30.15R WCI  34
OSCEOLA        CLOUDY    39  39 100 SW5       30.17S
$$

WIZ003>005-009-010-017-018-290900-
NORTH CENTRAL WISCONSIN

CITY           SKY/WX    TMP DP  RH WIND       PRES   REMARKS
MANITOWISH WTR CLOUDY    38  36  92 S7        30.09S WCI  32
ARBOR VITAE    LGT RAIN  39  37  90 S5        30.10S
WOODRUFF       LGT RAIN  39  37  90 S5        30.10S
RHINELANDER    CLOUDY    37  35  92 CALM      30.10S
EAGLE RIVER    CLOUDY    37  32  82 SW3       30.09S
LAND O LAKES   CLOUDY    39  32  75 S3        30.10S
PHILLIPS       CLOUDY    37  35  90 S3        30.11S
TOMAHAWK       CLOUDY    36  35  95 CALM      30.11F
MEDFORD        DRIZZLE   37  36  99 NE6       30.10S WCI  32
MERRILL        CLOUDY    37  37 100 CALM      30.11S
$$

WIZ029-030-035-036-043>047-290900-
CENTRAL WISCONSIN

CITY           SKY/WX    TMP DP  RH WIND       PRES   REMARKS
WAUSAU         CLOUDY    39  35  86 N3        30.08F
MOSINEE        CLOUDY    36  36 100 N7        30.10S WCI  30
MARSHFIELD     CLOUDY    38  35  89 N7        30.08S WCI  33
STEVENS POINT  CLOUDY    36  35  96 N3        30.09F
WAUPACA        CLOUDY    41  36  82 N6        30.08F
WAUTOMA        NOT AVBL
WISC RAPIDS    CLOUDY    39  34  82 CALM      30.10S
CAMP DOUGLAS   NOT AVBL
$$

WIZ011>013-019>022-031-037>040-048>050-290900-
NORTHEAST WISCONSIN

CITY           SKY/WX    TMP DP  RH WIND       PRES   REMARKS
ANTIGO         DRIZZLE   35  34  96 NE6       30.09S WCI  30
SHAWANO        CLOUDY    40  36  84 N8        30.09S WCI  35
OCONTO         CLOUDY    42  31  65 N6        30.08S
STURGEON BAY   CLOUDY    41  32  70 N6        30.09S
GREEN BAY      CLOUDY    43  35  73 N3        30.08R
MANITOWOC      CLOUDY    43  32  65 MISG      30.07R
APPLETON       CLOUDY    37  32  81 N6        30.05F WCI  33
CLINTONVILLE   CLOUDY    39  34  81 N9        30.09R WCI  33
OSHKOSH        CLOUDY    41  34  76 N8        30.06S
$$

WIZ032>034-041-042-053>061-290900-
SOUTHWEST WISCONSIN

CITY           SKY/WX    TMP DP  RH WIND       PRES   REMARKS
LA CROSSE      CLOUDY    40  36  86 N7        30.10S
SPARTA         CLOUDY    38  37  99 N3        30.11S
VIROQUA        CLOUDY    37  37 100 NE6       30.07F WCI  32
BOSCOBEL       CLOUDY    41  38  89 CALM      30.09S
PRAIRIE DU CHI CLOUDY    41  36  83 CALM      30.09S
PLATTEVILLE    CLOUDY    40  39  96 N6        30.06F
$$

WIZ056-057-062-063-064-067-068-290900-
SOUTH CENTRAL WISCONSIN

CITY           SKY/WX    TMP DP  RH WIND       PRES   REMARKS
REEDSBURG      DRIZZLE   38  37  99 N6        30.08R WCI  33
BARABOO/DELLS  DRIZZLE   37  36  96 N3        30.07S
LONE ROCK      NOT AVBL
MINERAL POINT  CLOUDY    41  39  93 CALM      30.06S
MADISON        LGT RAIN  39  38  96 CALM      30.06S
MIDDLETON      CLOUDY    41  41 100 NE7       30.06S
WATERTOWN      CLOUDY    39  39 100 CALM      30.05S
MONROE         CLOUDY    37  37 100 N3        30.05S
JANESVILLE     CLOUDY    41  41 100 CALM      30.04F
$$

WIZ051-052-058>065-066-070>072-290900-
SOUTHEAST WISCONSIN

CITY           SKY/WX    TMP DP  RH WIND       PRES   REMARKS
MILWAUKEE      LGT RAIN  40  37  89 NE8       30.04R FOG     WCI  34
WAUKESHA       LGT SNOW  36  36 100 NE5       30.05S WCI  32
MILWAUKEE/TIMM DRIZZLE   37  36  93 N3        30.06R
RACINE         LGT RAIN  41  37  86 N9        30.05R
BURLINGTON     CLOUDY    39  38  98 NE5       30.03S FOG
KENOSHA        LGT RAIN  41  39  93 N6        30.03S FOG
FOND DU LAC    CLOUDY    41  35  79 NW3       30.06R
SHEBOYGAN      CLOUDY    40  35  83 E3        30.06R
WEST BEND      CLOUDY    39  34  81 CALM      30.04S
JUNEAU         CLOUDY    39  37  95 CALM      30.06S
$$

LSZ147-162-290900-
LAKE SUPERIOR

STATION/POSITION TIME  TEMP    WIND        PRES    WAVE
                       AIR SEA DIR/SP/G            HT/PER
                 (UTC) (F)     (DEG/KT/KT) (MB)    (FT/S)
W MID LAKE BUOY  0650   37 36   20/  8/  8 1021.6F   1/ 5
DEVILS ISLAND    0700   37      20/  5/  6 1021.5F
SAXON HARBOR     0700   31     200/  4/  6 1020.0R
$$

LMZ867-665-643>646-290900-
LAKE MICHIGAN

STATION/POSITION TIME  TEMP    WIND        PRES    WAVE
                       AIR SEA DIR/SP/G            HT/PER
                 (UTC) (F)     (DEG/KT/KT) (MB)    (FT/S)
CHAMBERS ISLAND  0700   41      20/  8/ 10 1019.0S
N MID LAKE BUOY  0650   39 38  110/  4/  4 1019.1R   1/ 3
NORTHPORT PIER   0700   41      70/  7/ 10 1019.0S
ALGOMA LAKESHORE 0600           60/  8/ 10   N/A
KEWAUNEE LAKESHO 0700   41      10/  1/  3 1017.3F
SHEBOYGAN LAKESH 0700   41      80/  3/  4 1018.4F
PORT WASHINGTON  0740   41     350/  2/  7 1018.3S
S MID LAKE BUOY  0650   41 40   50/  8/ 10 1016.3F   2/ 4
KENOSHA   LAKESH 0700   41      10/ 10/ 11 1016.9S
$$

TC  - TEMPERATURE IN CELSIUS
VSB - VISIBILITY IN STATUTE MILES
WCI - WIND CHILL INDEX
HX  - HEAT INDEX





USA.gov is the U.S. government's official web portal to all federal, state and local government web resources and services.